Regional Weather Roundup
Issued by NWS

Home | Current Version | Previous Version | Text Only | Print | Product List | Glossary Off
Versions: 1 2 3 4 5 6 7 8 9 10 11 12 13 14 15 16 17 18 19 20 21 22 23 24 25 26 27 28 29 30 31 32 33 34 35 36 37 38 39 40 41 42 43 44 45 46 47 48 49 50

695
ASUS45 KABQ 171410
RWRNM
NEW MEXICO REGIONAL WEATHER ROUNDUP
NATIONAL WEATHER SERVICE ALBUQUERQUE NM
700 AM MST WED JAN 17 2018

NOTE: "FAIR" MEANS FEW OR NO CLOUDS BELOW 12,000 FEET AGL WITH NO
       SIGNIFICANT WEATHER OR OBSTRUCTIONS TO VISION.

      THIS PRODUCT IS RELEASED AS TWO VERSIONS.  ONE VERSION NEAR
      THE TOP OF THE HOUR CONTAINING PRELIMINARY DATA FROM ALBUQUERQUE
      AND OTHER STATIONS.  A FINAL VERSION WITH ADDITIONAL DATA IS
      ISSUED ABOUT 10 MINUTES AFTER THE HOUR.

NMZ501-503-504-510>518-171500-
NORTHWEST PLATEAU/NORTHCENTRAL MOUNTAINS

CITY           SKY/WX    TMP DP  RH WIND       PRES   REMARKS
FARMINGTON     FAIR      17  13  84 E6        30.36R WCI   9
LOS ALAMOS     FAIR      19  14  79 NW7       30.31S WCI  10
SANTA FE       FAIR      12  10  92 N7        30.32S WCI   1
ANGEL FIRE     FAIR      -6 -11  79 CALM      30.31S

$$
NMZ402-403-502-505>509-171500-
WESTCENTRAL MOUNTAINS/SOUTHWEST MOUNTAINS

CITY           SKY/WX    TMP DP  RH WIND       PRES   REMARKS
GALLUP         CLOUDY    21  14  74 CALM      30.34R
GRANTS         FAIR       8   4  81 NW13      30.36S WCI  -7
SILVER CITY    FAIR      20  10  67 CALM      30.36S

$$
NMZ407-409-411-412-171500-
SOUTHERN DESERTS

CITY           SKY/WX    TMP DP  RH WIND       PRES   REMARKS
DEMING         FAIR      20   6  55 E6        30.40F WCI  12
LAS CRUCES     FAIR      19   4  54 S3        30.42S
HOLLOMAN AFB   FAIR      13  -2  51 NE5       30.47R WCI   5
ALAMOGORDO     FAIR      14   0  52 NE7       30.44S WCI   4
T OR C         FAIR      17   6  62 CALM      30.38S

$$
NMZ519>523-171500-
CENTRAL VALLEYS/CENTRAL HIGHLANDS

CITY           SKY/WX    TMP DP  RH WIND       PRES   REMARKS
ALBUQUERQUE    FAIR      19  12  74 CALM      30.39R
DOUBLE EAGLE   CLEAR     12   9  85 CALM      30.37R
MORIARTY ARPT  FAIR       2  -4  77 CALM      30.35R
CLINES CORNERS FAIR      15  10  80 NW21      30.27R WCI  -2
BELEN          FAIR      11   6  81 CALM      30.39S
SOCORRO        FAIR      13   6  72 W3        30.41R

$$
NMZ524>526-539-540-171500-
SOUTHCENTRAL MOUNTAINS

CITY           SKY/WX    TMP DP  RH WIND       PRES   REMARKS
RUIDOSO        FAIR      16   9  73 CALM      30.32S

$$
NMZ527>531-171500-
NORTHEAST HIGHLANDS/NORTHEAST PLAINS

CITY           SKY/WX    TMP DP  RH WIND       PRES   REMARKS
LAS VEGAS      FAIR      12   9  87 N7        30.23S WCI   1
RATON          FAIR      10   6  84 NE8       30.24S WCI  -2
CLAYTON        FAIR      20  14  77 SW12      30.24R WCI   8

$$
NMZ532>537-171500-
EASTCENTRAL PLAINS

CITY           SKY/WX    TMP DP  RH WIND       PRES   REMARKS
SANTA ROSA     FAIR      10   2  71 SE12      30.33S WCI  -5
TUCUMCARI      FAIR      20   0  41 SW10      30.34S WCI   9
CANNON AFB     FAIR      15   1  53 CALM      30.40S
CLOVIS AIRPORT FAIR       9   1  70 SW9       30.41R WCI  -4

$$
NMZ028-029-538-171500-
SOUTHEAST PLAINS

CITY           SKY/WX    TMP DP  RH WIND       PRES   REMARKS
ROSWELL        FAIR      11  -2  56 CALM      30.43S
ARTESIA        FAIR      12  -4  48 SW5       30.46S WCI   4
CARLSBAD       CLOUDY    26   4  38 SE8       30.47R WCI  18
HOBBS          PTCLDY    12  -4  48 S5        30.48S WCI   4


$$




USA.gov is the U.S. government's official web portal to all federal, state and local government web resources and services.